Flag for China Weather past 2 weeks in Tsingtao, Shandong, China

Now
59 °F

Clear.


Feels Like: 58 °F
Forecast: 59 / 69 °F
Wind: 8 mph from South

Location: Qingdao Airport

Current Time: May 23, 2015 at 10:31:19 PM

Latest Report: May 23, 2015 at 10:00 PM


Visibility: 10 mi

Pressure: 29.86 "Hg

Humidity: 82%

Dew point: 54 °F

Location of TsingtaoLocation

Historic Weather in Tsingtao — Graph

°F

Tsingtao temperature yesterday

Maximum temperature yesterday: 73 °F (at 11:00 AM)
Minimum temperature yesterday: 61 °F (at 11:00 PM)
Average temperature yesterday: 67 °F

Past Weeks' High & Low Weather Summary

 TemperatureHumidityPressure
High82 °F (May 14, 11:00 AM)94% (May 11, 11:00 AM)30.04 "Hg (May 11, 11:00 AM)
Low50 °F (May 10, 3:00 AM)11% (May 16, 12:00 PM)29.45 "Hg (May 12, 12:00 PM)
Average67 °F48%29.80 "Hg
* Reported May 8 9:00 PM — May 23 9:00 PM, Tsingtao, Weather by CustomWeather, © 2015

Note: Actual official high and low records may vary slightly from our data, if they occured in-between our weather recording intervals... More about our weather records

Advertising

Tsingtao weather history for previous 24 hours

 ConditionsComfort  
Time TempWeatherWind HumidityBarometerVisibility
9:00 PM
Sat, May 23
61 °FClear.8 mph77%29.83 "Hg10 mi
8:00 PM61 °FClear.10 mph63%29.83 "Hg10 mi
7:00 PM64 °FSunny.10 mph52%29.80 "Hg10 mi
6:00 PM66 °FSunny.13 mph49%29.80 "Hg10 mi
5:00 PM70 °FSunny.13 mph46%29.80 "Hg10 mi
4:00 PM72 °FSunny.13 mph47%29.80 "Hg10 mi
3:00 PM73 °FSunny.13 mph44%29.80 "Hg10 mi
2:00 PM73 °FPassing clouds.10 mph47%29.80 "HgN/A
1:00 PM75 °FPassing clouds.10 mph44%29.83 "HgN/A
12:00 PM73 °FPassing clouds.10 mph50%29.83 "HgN/A
11:00 AM73 °FPassing clouds.8 mph47%29.86 "HgN/A
10:00 AM72 °FPassing clouds.6 mph47%29.86 "HgN/A
9:00 AM70 °FSunny.1 mph50%29.86 "Hg10 mi
8:00 AM68 °FSunny.1 mph56%29.86 "Hg10 mi
7:00 AM64 °FPassing clouds.3 mph68%29.86 "HgN/A
6:00 AM59 °FSunny.1 mph72%29.86 "Hg10 mi
5:00 AM55 °FSunny.6 mph82%29.86 "Hg10 mi
4:00 AM57 °FClear.8 mph77%29.86 "Hg10 mi
3:00 AM59 °FClear.8 mph68%29.86 "Hg10 mi
2:00 AM59 °FClear.8 mph63%29.86 "Hg10 mi
1:00 AM59 °FClear.8 mph59%29.86 "Hg10 mi
12:00 AM59 °FClear.8 mph55%29.89 "Hg10 mi
11:00 PM
Fri, May 22
61 °FClear.8 mph48%29.89 "Hg10 mi
10:00 PM63 °FClear.13 mph42%29.89 "Hg10 mi
Weather by CustomWeather, © 2015

See weather overviewHow to use our weather pages